カタログに戻る

STARLINK-11179

運用中通信VLEO
NORAD 60190·PAYLOAD·🇺🇸 United States

打ち上げ Jul 3, 2024 から Cape Canaveral Space Force Station

Loading…

次のパス (今後24時間)

TLE

最新Source: CelesTrak SupGP

元期: Sep 15, 2026, 02:42 UTC

1 60190C 24124H   26258.11298611  .00044026  00000+0  36245-3 0  2587
2 60190  53.1566 307.7212 0001190  96.3482 192.8721 15.69701514    19

AllMySatでSTARLINK-11179をリアルタイム追跡

Download on the App Store